C/2013 V3 ( Nevski )

Japanese version
Home page
Updated on May 7, 2015

---------------------------------------------------------------------

* Profile

Discovery Date November 6, 2013
Magnitude 15.1 mag
Discoverer Vitali Nevski (ISON-Kislovodsk observatory near Kislovodsk, Russia)

* Pictures

* Orbital Elements

Epoch 2013 Nov. 4.0 TT = JDT 2456600.5
T 2013 Oct. 29.90696 TT                                 MPC
q   1.3866959            (2000.0)            P               Q
n   0.02173375     Peri.  339.64434     +0.11164770     -0.84543345
a  12.7168528      Node   100.91811     +0.96940118     -0.02296655
e   0.8909560      Incl.   32.13451     +0.21862331     +0.53358674
P  45.3
From 804 observations 2013 Nov. 7-2014 Mar. 8, mean residual 0".6.

* Finding Charts

* Magnitudes Graph

        m1 = 13.0 + 5 log d + 10.0 log r          [  ,13]  (             - 2013 Nov. 11)
        m1 =  2   + 5 log d + 35   log r(t + 50)  [13,  ]  (2013 Nov. 11 -             )

---------------------------------------------------------------------

The orbital elements are published on M.P.E.C. 2014-J58.
The charts are made with StellaNavigator Ver.8 (AstroArts).
The magnitudes graphs are made with Comet for Windows.

---------------------------------------------------------------------

Copyright(C) Seiichi Yoshida (comet@aerith.net). All rights reserved.